Henderson, KY

10:38 AM CST on December 12, 2019 (GMT -0600)
Henderson City-County

Weather History for KEHR - October, 2019

Change the Weather History Date:

Sunday, October 13, 2019

  Actual Average Record
Temperature  
Mean Temperature 52 °F -  
Max Temperature 70 °F 73 °F 91 °F (1940)
Min Temperature 34 °F 48 °F 26 °F (1988)
Degree Days  
Heating Degree Days 13    
Growing Degree Days 2 (Base 50)    
Moisture  
Dew Point 36 °F    
Average Humidity 63    
Maximum Humidity 96    
Minimum Humidity 27    
Precipitation  
Precipitation 0.00 in - - ()
Sea Level Pressure  
Sea Level Pressure 30.02 in    
Wind  
Wind Speed 6 mph (SSW)    
Max Wind Speed 15 mph    
Max Gust Speed 21 mph    
Visibility 10 miles    
Events      
Averages and records for this station are not official NWS values.
T = Trace of Precipitation, MM = Missing Value Source: NWS Daily Summary

Daily Weather History Graph

Daily Weather History Graph

Search for Another Location

Airport or City:

Astronomy

Oct. 13, 2019 Rise Set
Actual Time 6:57 AM CDT 6:16 PM CDT
Civil Twilight 6:30 AM CDT 6:42 PM CDT
Nautical Twilight 6:00 AM CDT 7:13 PM CDT
Astronomical Twilight 5:29 AM CDT 7:43 PM CDT
Moon 6:37 PM CDT (10/13) 6:32 AM CDT (10/13)
Length of Visible Light 12h 12m
Length of Day
11h 19m
Full, 100% of the Moon is Illuminated
Oct 13
Full
Oct 13
Full
Oct 21
Last Quarter
Oct 27
New
Nov 4
First Quarter

Hourly Weather History & Observations

Time (CDT) Temp. Windchill Dew Point Humidity Pressure Visibility Wind Dir Wind Speed Gust Speed Precip Events Conditions
12:56 AM 39.0 °F 35.7 °F 33.1 °F 79% 30.05 in 10.0 mi South 4.6 mph - N/A   Clear
1:56 AM 37.0 °F 34.5 °F 33.1 °F 86% 30.07 in 10.0 mi SSW 3.5 mph - N/A   Clear
2:56 AM 34.0 °F 31.0 °F 30.9 °F 89% 30.05 in 10.0 mi South 3.5 mph - N/A   Clear
3:56 AM 36.0 °F 31.1 °F 33.1 °F 89% 30.04 in 10.0 mi South 5.8 mph - N/A   Clear
4:56 AM 35.1 °F 32.2 °F 33.1 °F 92% 30.04 in 10.0 mi South 3.5 mph - N/A   Clear
5:56 AM 34.0 °F - 33.1 °F 96% 30.06 in 10.0 mi Calm Calm - N/A   Clear
6:56 AM 35.1 °F 30.1 °F 34.0 °F 96% 30.06 in 10.0 mi South 5.8 mph - N/A   Clear
7:56 AM 39.9 °F - 37.0 °F 89% 30.06 in 10.0 mi Calm Calm - N/A   Clear
8:56 AM 48.9 °F - 39.9 °F 71% 30.06 in 10.0 mi SSW 8.1 mph - N/A   Clear
9:56 AM 54.0 °F - 41.0 °F 62% 30.05 in 10.0 mi SW 12.7 mph - N/A   Clear
10:56 AM 59.0 °F - 39.0 °F 48% 30.05 in 10.0 mi SW 12.7 mph - N/A   Clear
11:56 AM 64.0 °F - 39.0 °F 40% 30.03 in 10.0 mi South 11.5 mph - N/A   Clear
12:56 PM 66.0 °F - 36.0 °F 33% 30.01 in 10.0 mi WSW 13.8 mph - N/A   Clear
1:56 PM 68.0 °F - 36.0 °F 31% 29.98 in 10.0 mi SW 12.7 mph - N/A   Clear
2:56 PM 70.0 °F - 34.0 °F 27% 29.97 in 10.0 mi SW 15.0 mph 20.7 mph N/A   Clear
3:56 PM 69.1 °F - 36.0 °F 30% 29.97 in 10.0 mi SW 11.5 mph 19.6 mph N/A   Clear
4:56 PM 68.0 °F - 35.1 °F 30% 29.96 in 10.0 mi SW 11.5 mph - N/A   Clear
5:56 PM 64.0 °F - 37.0 °F 37% 29.97 in 10.0 mi SW 8.1 mph - N/A   Clear
6:56 PM 52.0 °F - 37.0 °F 57% 29.98 in 10.0 mi SSW 5.8 mph - N/A   Clear
7:56 PM 52.0 °F - 37.9 °F 59% 30.00 in 10.0 mi SW 4.6 mph - N/A   Clear
8:56 PM 51.1 °F - 37.9 °F 61% 30.01 in 10.0 mi SW 8.1 mph - N/A   Clear
9:56 PM 50.0 °F - 37.0 °F 61% 30.02 in 10.0 mi SW 5.8 mph - N/A   Clear
10:56 PM 48.0 °F - 37.9 °F 68% 30.02 in 10.0 mi SW 6.9 mph - N/A   Clear
11:56 PM 46.9 °F - 37.9 °F 71% 30.02 in 10.0 mi SSW 8.1 mph - N/A   Clear